Location: Chin
(49.7667°N, 112.4500°W)
Time: 10:30:31
(UTC+00:00)

Envisat - Pass Details

Date: 01 December 2021
Orbit: 764 x 766 km, 98.2° (Epoch: 23 January)

Event Time Altitude Azimuth Distance (km) Brightness Sun altitude
Rises 12:22:55 0° 16° (NNE) 3,247 6.4 -25.4°
Reaches altitude 10° 12:25:16 10° 20° (NNE) 2,316 5.6 -25.1°
Maximum altitude 12:30:20 62° 101° (ESE) 864 3.4 -24.2°
Drops below altitude 10° 12:35:21 10° 182° (S) 2,297 5.5 -23.4°
Sets 12:37:40 0° 186° (S) 3,219 6.3 -23.1°
